| time (UTC) | temp F | wind direction | speed MPH | gust MPH | rain 1hr in | rain 24hr in | rain mn in | humidity % | barometer mb |
| 20260508041156 | 50 | 135 | 0.0 | 0.0 | 0.00 | 0.00 | 0.00 | 94 | 1007.0 |
| 20260508040659 | 50 | 135 | 0.0 | 0.0 | 0.00 | 0.00 | 0.00 | 94 | 1007.0 |
| 20260508040156 | 50 | 135 | 0.0 | 0.0 | 0.00 | 0.00 | 0.00 | 94 | 1007.0 |
| 20260508035655 | 50 | 135 | 0.0 | 0.0 | 0.00 | 0.00 | 0.72 | 94 | 1007.0 |
| 20260508035155 | 50 | 135 | 0.0 | 0.0 | 0.00 | 0.00 | 0.72 | 94 | 1007.0 |
| 20260508034657 | 50 | 135 | 0.0 | 0.0 | 0.00 | 0.00 | 0.72 | 94 | 1007.0 |
| 20260508034155 | 50 | 135 | 0.0 | 0.0 | 0.00 | 0.00 | 0.72 | 94 | 1007.0 |
| 20260508033655 | 50 | 135 | 0.0 | 0.0 | 0.00 | 0.00 | 0.72 | 94 | 1007.0 |
| 20260508033159 | 50 | 135 | 0.0 | 0.0 | 0.00 | 0.00 | 0.72 | 94 | 1007.0 |
| 20260508032657 | 51 | 135 | 1.0 | 2.0 | 0.00 | 0.00 | 0.72 | 94 | 1007.0 |
| 20260508032157 | 51 | 135 | 0.0 | 0.0 | 0.00 | 0.00 | 0.72 | 94 | 1007.0 |
| 20260508031655 | 51 | 135 | 0.0 | 0.0 | 0.00 | 0.00 | 0.72 | 94 | 1007.0 |
| 20260508031154 | 51 | 135 | 0.0 | 0.0 | 0.00 | 0.00 | 0.72 | 94 | 1007.0 |
| 20260508030656 | 51 | 135 | 0.0 | 0.0 | 0.00 | 0.00 | 0.72 | 94 | 1007.0 |
| 20260508030157 | 51 | 135 | 0.0 | 0.0 | 0.00 | 0.00 | 0.72 | 94 | 1007.0 |
| 20260508025654 | 51 | 135 | 0.0 | 0.0 | 0.00 | 0.00 | 0.72 | 94 | 1007.0 |
| 20260508025155 | 51 | 135 | 0.0 | 0.0 | 0.00 | 0.00 | 0.72 | 94 | 1007.0 |
| 20260508024654 | 52 | 135 | 0.0 | 0.0 | 0.00 | 0.00 | 0.72 | 94 | 1007.0 |
| 20260508024155 | 52 | 135 | 0.0 | 0.0 | 0.00 | 0.00 | 0.72 | 94 | 1007.0 |
| 20260508023656 | 52 | 135 | 0.0 | 0.0 | 0.00 | 0.00 | 0.72 | 94 | 1006.0 |
| 20260508023156 | 52 | 135 | 0.0 | 0.0 | 0.00 | 0.00 | 0.72 | 94 | 1006.0 |
| 20260508022656 | 53 | 135 | 0.0 | 0.0 | 0.00 | 0.00 | 0.72 | 94 | 1007.0 |
| 20260508022155 | 53 | 135 | 0.0 | 0.0 | 0.00 | 0.00 | 0.72 | 94 | 1006.0 |
| 20260508021655 | 53 | 135 | 0.0 | 0.0 | 0.00 | 0.00 | 0.72 | 94 | 1006.0 |
| 20260508021154 | 53 | 135 | 0.0 | 0.0 | 0.00 | 0.00 | 0.72 | 94 | 1006.0 |
| 20260508020655 | 53 | 135 | 0.0 | 0.0 | 0.00 | 0.00 | 0.72 | 94 | 1006.0 |
| 20260508020154 | 53 | 135 | 0.0 | 0.0 | 0.00 | 0.00 | 0.72 | 94 | 1006.0 |
| 20260508015655 | 53 | 135 | 0.0 | 0.0 | 0.00 | 0.00 | 0.72 | 94 | 1006.0 |
| 20260508015154 | 54 | 135 | 0.0 | 0.0 | 0.00 | 0.00 | 0.72 | 94 | 1006.0 |
| 20260508014655 | 54 | 135 | 0.0 | 0.0 | 0.00 | 0.00 | 0.72 | 94 | 1006.0 |
| 20260508014154 | 54 | 135 | 0.0 | 0.0 | 0.00 | 0.00 | 0.72 | 94 | 1006.0 |
| 20260508013655 | 54 | 135 | 0.0 | 0.0 | 0.00 | 0.00 | 0.72 | 94 | 1006.0 |
| 20260508013156 | 55 | 135 | 0.0 | 0.0 | 0.00 | 0.00 | 0.72 | 94 | 1005.0 |
| 20260508012655 | 55 | 135 | 0.0 | 0.0 | 0.00 | 0.00 | 0.72 | 94 | 1005.0 |
| 20260508012155 | 55 | 135 | 0.0 | 0.0 | 0.00 | 0.00 | 0.72 | 94 | 1005.0 |
| 20260508011655 | 55 | 135 | 0.0 | 0.0 | 0.00 | 0.00 | 0.72 | 94 | 1005.0 |
| 20260508011155 | 55 | 135 | 0.0 | 0.0 | 0.00 | 0.00 | 0.72 | 94 | 1005.0 |
| 20260508010654 | 55 | 135 | 0.0 | 0.0 | 0.00 | 0.00 | 0.72 | 94 | 1005.0 |
| 20260508010157 | 55 | 135 | 1.0 | 2.0 | 0.00 | 0.00 | 0.72 | 94 | 1005.0 |
| 20260508005655 | 55 | 135 | 0.0 | 0.0 | 0.00 | 0.00 | 0.72 | 94 | 1005.0 |
| 20260508005156 | 55 | 135 | 0.0 | 0.0 | 0.00 | 0.00 | 0.72 | 93 | 1005.0 |
| 20260508004656 | 55 | 135 | 0.0 | 0.0 | 0.00 | 0.00 | 0.72 | 93 | 1005.0 |
| 20260508004155 | 55 | 135 | 0.0 | 0.0 | 0.00 | 0.00 | 0.72 | 93 | 1005.0 |
| 20260508003656 | 55 | 135 | 0.0 | 0.0 | 0.00 | 0.00 | 0.72 | 93 | 1005.0 |
| 20260508003154 | 55 | 135 | 0.0 | 0.0 | 0.00 | 0.00 | 0.72 | 93 | 1005.0 |
| 20260508002656 | 55 | 135 | 0.0 | 0.0 | 0.00 | 0.00 | 0.72 | 93 | 1005.0 |
| 20260508002157 | 55 | 135 | 0.0 | 0.0 | 0.00 | 0.00 | 0.72 | 93 | 1005.0 |
| 20260508001654 | 56 | 135 | 0.0 | 0.0 | 0.00 | 0.00 | 0.72 | 93 | 1005.0 |
| 20260508001155 | 56 | 135 | 0.0 | 0.0 | 0.00 | 0.00 | 0.72 | 93 | 1005.0 |
| 20260508000655 | 56 | 135 | 0.0 | 0.0 | 0.00 | 0.00 | 0.72 | 93 | 1005.0 |
| 20260508000156 | 56 | 135 | 0.0 | 0.0 | 0.00 | 0.00 | 0.72 | 93 | 1005.0 |
| 20260507235654 | 56 | 113 | 0.0 | 0.0 | 0.00 | 0.00 | 0.72 | 92 | 1005.0 |
| 20260507235156 | 56 | 113 | 1.0 | 2.0 | 0.00 | 0.00 | 0.72 | 92 | 1005.0 |
| 20260507234655 | 56 | 113 | 0.0 | 2.0 | 0.00 | 0.00 | 0.72 | 92 | 1004.0 |
| 20260507234155 | 56 | 113 | 0.0 | 1.0 | 0.00 | 0.00 | 0.72 | 92 | 1004.0 |
| 20260507233654 | 56 | 113 | 0.0 | 0.0 | 0.00 | 0.00 | 0.72 | 92 | 1004.0 |
| 20260507233155 | 56 | 113 | 0.0 | 0.0 | 0.00 | 0.00 | 0.72 | 92 | 1004.0 |
| 20260507232656 | 56 | 135 | 0.0 | 1.0 | 0.00 | 0.00 | 0.72 | 92 | 1004.0 |
| 20260507232155 | 56 | 113 | 0.0 | 1.0 | 0.00 | 0.00 | 0.72 | 92 | 1004.0 |
| 20260507231655 | 56 | 135 | 0.0 | 0.0 | 0.00 | 0.00 | 0.72 | 92 | 1004.0 |
| 20260507231156 | 56 | 135 | 0.0 | 0.0 | 0.00 | 0.00 | 0.72 | 92 | 1004.0 |
| 20260507230656 | 56 | 113 | 0.0 | 1.0 | 0.00 | 0.00 | 0.72 | 92 | 1004.0 |
| 20260507230154 | 56 | 68 | 3.0 | 3.0 | 0.00 | 0.00 | 0.72 | 92 | 1004.0 |
| 20260507225654 | 56 | 113 | 0.0 | 1.0 | 0.00 | 0.00 | 0.72 | 92 | 1004.0 |
| 20260507225159 | 56 | 113 | 2.0 | 2.0 | 0.00 | 0.00 | 0.72 | 92 | 1004.0 |
| 20260507224655 | 56 | 135 | 1.0 | 2.0 | 0.00 | 0.00 | 0.72 | 91 | 1004.0 |
| 20260507224154 | 56 | 113 | 2.0 | 2.0 | 0.00 | 0.00 | 0.72 | 91 | 1004.0 |
| 20260507223655 | 56 | 113 | 1.0 | 2.0 | 0.00 | 0.00 | 0.72 | 91 | 1004.0 |
| 20260507223154 | 56 | 113 | 0.0 | 1.0 | 0.00 | 0.00 | 0.72 | 91 | 1004.0 |
| 20260507222654 | 56 | 113 | 1.0 | 2.0 | 0.00 | 0.00 | 0.72 | 91 | 1004.0 |
| 20260507222154 | 56 | 113 | 1.0 | 2.0 | 0.00 | 0.00 | 0.72 | 92 | 1004.0 |
| 20260507221655 | 56 | 113 | 1.0 | 2.0 | 0.00 | 0.00 | 0.72 | 92 | 1004.0 |
| 20260507221154 | 56 | 113 | 0.0 | 0.0 | 0.00 | 0.00 | 0.72 | 92 | 1004.0 |
| 20260507220655 | 56 | 113 | 1.0 | 1.0 | 0.00 | 0.00 | 0.72 | 92 | 1003.0 |
| 20260507220155 | 56 | 113 | 1.0 | 2.0 | 0.00 | 0.00 | 0.72 | 91 | 1003.0 |
| 20260507215654 | 56 | 113 | 0.0 | 0.0 | 0.00 | 0.00 | 0.72 | 91 | 1004.0 |
| 20260507215156 | 56 | 113 | 3.0 | 4.0 | 0.00 | 0.00 | 0.72 | 91 | 1003.0 |
| 20260507214655 | 56 | 113 | 2.0 | 2.0 | 0.00 | 0.00 | 0.72 | 92 | 1003.0 |
| 20260507214155 | 56 | 113 | 5.0 | 7.0 | 0.00 | 0.00 | 0.72 | 91 | 1003.0 |
| 20260507213655 | 56 | 113 | 2.0 | 2.0 | 0.00 | 0.00 | 0.72 | 92 | 1003.0 |
| 20260507213155 | 56 | 113 | 0.0 | 1.0 | 0.00 | 0.00 | 0.72 | 92 | 1004.0 |
| 20260507212657 | 56 | 113 | 2.0 | 3.0 | 0.00 | 0.00 | 0.72 | 92 | 1004.0 |
| 20260507212155 | 56 | 113 | 2.0 | 2.0 | 0.00 | 0.00 | 0.72 | 92 | 1003.0 |
| 20260507211654 | 56 | 113 | 1.0 | 2.0 | 0.00 | 0.00 | 0.72 | 92 | 1003.0 |
| 20260507211154 | 56 | 113 | 3.0 | 5.0 | 0.00 | 0.00 | 0.72 | 92 | 1003.0 |
| 20260507210657 | 56 | 113 | 0.0 | 1.0 | 0.00 | 0.00 | 0.72 | 93 | 1004.0 |
| 20260507210157 | 56 | 113 | 3.0 | 4.0 | 0.00 | 0.00 | 0.72 | 93 | 1004.0 |
| 20260507205654 | 56 | 113 | 2.0 | 2.0 | 0.07 | 0.00 | 0.72 | 94 | 1003.0 |
| 20260507205155 | 55 | 135 | 2.0 | 4.0 | 0.07 | 0.00 | 0.72 | 93 | 1003.0 |
| 20260507204656 | 55 | 113 | 4.0 | 5.0 | 0.07 | 0.00 | 0.72 | 93 | 1003.0 |
| 20260507204157 | 55 | 113 | 2.0 | 2.0 | 0.06 | 0.00 | 0.71 | 93 | 1003.0 |
| 20260507203655 | 55 | 113 | 0.0 | 1.0 | 0.05 | 0.00 | 0.70 | 92 | 1004.0 |
| 20260507203156 | 55 | 113 | 2.0 | 2.0 | 0.04 | 0.00 | 0.69 | 92 | 1004.0 |
| 20260507202657 | 55 | 113 | 1.0 | 2.0 | 0.01 | 0.00 | 0.66 | 92 | 1004.0 |
| 20260507202155 | 56 | 113 | 3.0 | 5.0 | 0.00 | 0.00 | 0.65 | 92 | 1004.0 |
| 20260507201655 | 56 | 113 | 1.0 | 2.0 | 0.00 | 0.00 | 0.65 | 91 | 1003.0 |
| 20260507201154 | 56 | 113 | 2.0 | 2.0 | 0.00 | 0.00 | 0.65 | 92 | 1003.0 |
| 20260507200655 | 56 | 113 | 1.0 | 2.0 | 0.00 | 0.00 | 0.65 | 92 | 1003.0 |
| 20260507200155 | 56 | 113 | 3.0 | 4.0 | 0.00 | 0.00 | 0.65 | 91 | 1004.0 |
| 20260507195656 | 56 | 113 | 2.0 | 2.0 | 0.00 | 0.00 | 0.65 | 91 | 1003.0 |
| 20260507195157 | 57 | 113 | 2.0 | 2.0 | 0.00 | 0.00 | 0.65 | 91 | 1003.0 |
| 20260507194657 | 57 | 113 | 1.0 | 2.0 | 0.00 | 0.00 | 0.65 | 91 | 1003.0 |
| 20260507194156 | 57 | 113 | 3.0 | 5.0 | 0.00 | 0.00 | 0.65 | 90 | 1004.0 |
| 20260507193655 | 57 | 135 | 2.0 | 3.0 | 0.00 | 0.00 | 0.65 | 90 | 1003.0 |
| 20260507193155 | 57 | 113 | 4.0 | 5.0 | 0.00 | 0.00 | 0.65 | 90 | 1003.0 |
| 20260507192654 | 57 | 113 | 3.0 | 5.0 | 0.00 | 0.00 | 0.65 | 90 | 1003.0 |
| 20260507192156 | 57 | 113 | 3.0 | 4.0 | 0.00 | 0.00 | 0.65 | 91 | 1003.0 |
| 20260507191655 | 57 | 113 | 1.0 | 3.0 | 0.00 | 0.00 | 0.65 | 91 | 1003.0 |
| 20260507191155 | 57 | 113 | 3.0 | 5.0 | 0.00 | 0.00 | 0.65 | 91 | 1003.0 |
| 20260507190655 | 57 | 113 | 0.0 | 1.0 | 0.00 | 0.00 | 0.65 | 91 | 1003.0 |
| 20260507190156 | 57 | 113 | 5.0 | 7.0 | 0.00 | 0.00 | 0.65 | 91 | 1003.0 |
| 20260507185703 | 57 | 113 | 2.0 | 2.0 | 0.01 | 0.00 | 0.65 | 91 | 1003.0 |
| 20260507185154 | 57 | 113 | 3.0 | 5.0 | 0.01 | 0.00 | 0.65 | 91 | 1003.0 |
| 20260507184701 | 57 | 113 | 4.0 | 5.0 | 0.01 | 0.00 | 0.65 | 91 | 1003.0 |
| 20260507184155 | 57 | 113 | 2.0 | 3.0 | 0.01 | 0.00 | 0.65 | 92 | 1003.0 |
| 20260507183656 | 56 | 113 | 4.0 | 6.0 | 0.01 | 0.00 | 0.65 | 92 | 1003.0 |
| 20260507183157 | 56 | 113 | 5.0 | 8.0 | 0.01 | 0.00 | 0.65 | 92 | 1004.0 |
| 20260507182657 | 56 | 113 | 4.0 | 7.0 | 0.01 | 0.00 | 0.65 | 92 | 1003.0 |
| 20260507182156 | 56 | 113 | 3.0 | 4.0 | 0.01 | 0.00 | 0.65 | 93 | 1003.0 |
| 20260507181655 | 56 | 113 | 3.0 | 5.0 | 0.01 | 0.00 | 0.65 | 93 | 1003.0 |
| 20260507181156 | 56 | 113 | 3.0 | 4.0 | 0.01 | 0.00 | 0.65 | 93 | 1003.0 |
| 20260507180655 | 56 | 113 | 2.0 | 2.0 | 0.00 | 0.00 | 0.64 | 93 | 1003.0 |
| 20260507180156 | 57 | 113 | 1.0 | 3.0 | 0.00 | 0.00 | 0.64 | 93 | 1003.0 |
| 20260507175657 | 57 | 135 | 2.0 | 2.0 | 0.04 | 0.00 | 0.63 | 93 | 1004.0 |
| 20260507175156 | 57 | 113 | 1.0 | 2.0 | 0.04 | 0.00 | 0.63 | 93 | 1004.0 |
| 20260507174656 | 57 | 113 | 1.0 | 2.0 | 0.02 | 0.00 | 0.61 | 92 | 1003.0 |
| 20260507174154 | 58 | 113 | 3.0 | 4.0 | 0.01 | 0.00 | 0.60 | 92 | 1004.0 |
| 20260507173654 | 59 | 113 | 2.0 | 3.0 | 0.00 | 0.00 | 0.59 | 92 | 1004.0 |
| 20260507173156 | 59 | 113 | 4.0 | 5.0 | 0.00 | 0.00 | 0.59 | 92 | 1004.0 |
| 20260507172656 | 60 | 113 | 3.0 | 4.0 | 0.00 | 0.00 | 0.59 | 91 | 1003.0 |
| 20260507172157 | 61 | 113 | 3.0 | 4.0 | 0.00 | 0.00 | 0.59 | 92 | 1003.0 |
| 20260507171655 | 62 | 113 | 3.0 | 4.0 | 0.00 | 0.00 | 0.59 | 92 | 1003.0 |
| 20260507171158 | 62 | 113 | 2.0 | 3.0 | 0.00 | 0.00 | 0.59 | 92 | 1003.0 |
| 20260507170657 | 62 | 113 | 3.0 | 5.0 | 0.00 | 0.00 | 0.59 | 92 | 1003.0 |
| 20260507170155 | 63 | 135 | 1.0 | 2.0 | 0.00 | 0.00 | 0.59 | 93 | 1003.0 |
| 20260507165656 | 63 | 113 | 3.0 | 4.0 | 0.06 | 0.00 | 0.59 | 92 | 1003.0 |
| 20260507165157 | 63 | 113 | 2.0 | 2.0 | 0.06 | 0.00 | 0.59 | 92 | 1003.0 |
| 20260507164655 | 64 | 113 | 0.0 | 1.0 | 0.06 | 0.00 | 0.59 | 93 | 1002.0 |
| 20260507164157 | 64 | 113 | 3.0 | 4.0 | 0.06 | 0.00 | 0.59 | 94 | 1002.0 |
| 20260507163656 | 64 | 113 | 1.0 | 2.0 | 0.06 | 0.00 | 0.59 | 94 | 1002.0 |
| 20260507163200 | 63 | 135 | 0.0 | 1.0 | 0.06 | 0.00 | 0.59 | 94 | 1002.0 |
| 20260507162657 | 63 | 113 | 1.0 | 2.0 | 0.06 | 0.00 | 0.59 | 94 | 1002.0 |
| 20260507162154 | 63 | 113 | 1.0 | 2.0 | 0.06 | 0.00 | 0.59 | 94 | 1003.0 |
| 20260507161657 | 63 | 113 | 2.0 | 3.0 | 0.06 | 0.00 | 0.59 | 94 | 1003.0 |
| 20260507161155 | 63 | 113 | 1.0 | 2.0 | 0.06 | 0.00 | 0.59 | 94 | 1003.0 |
| 20260507160656 | 64 | 113 | 3.0 | 5.0 | 0.06 | 0.00 | 0.59 | 94 | 1003.0 |
| 20260507160154 | 64 | 135 | 0.0 | 0.0 | 0.01 | 0.00 | 0.54 | 95 | 1003.0 |
| 20260507155657 | 65 | 135 | 0.0 | 0.0 | 0.02 | 0.00 | 0.48 | 95 | 1003.0 |
| 20260507155156 | 65 | 135 | 0.0 | 0.0 | 0.02 | 0.00 | 0.48 | 95 | 1003.0 |
| 20260507154657 | 65 | 135 | 0.0 | 0.0 | 0.02 | 0.00 | 0.48 | 95 | 1003.0 |
| 20260507154156 | 65 | 135 | 0.0 | 0.0 | 0.02 | 0.00 | 0.48 | 95 | 1003.0 |
| 20260507153658 | 65 | 135 | 0.0 | 0.0 | 0.02 | 0.00 | 0.48 | 95 | 1003.0 |
| 20260507153156 | 65 | 135 | 0.0 | 0.0 | 0.02 | 0.00 | 0.48 | 95 | 1003.0 |
| 20260507152656 | 65 | 135 | 0.0 | 0.0 | 0.02 | 0.00 | 0.48 | 95 | 1004.0 |
| 20260507152156 | 65 | 135 | 0.0 | 0.0 | 0.01 | 0.00 | 0.47 | 95 | 1003.0 |
| 20260507151656 | 65 | 113 | 0.0 | 1.0 | 0.01 | 0.00 | 0.47 | 95 | 1004.0 |
| 20260507151156 | 65 | 135 | 0.0 | 0.0 | 0.00 | 0.00 | 0.46 | 95 | 1004.0 |
| 20260507150659 | 65 | 135 | 0.0 | 1.0 | 0.00 | 0.00 | 0.46 | 95 | 1004.0 |
| 20260507150157 | 65 | 135 | 1.0 | 1.0 | 0.00 | 0.00 | 0.46 | 95 | 1003.0 |
| 20260507145657 | 65 | 135 | 0.0 | 0.0 | 0.07 | 0.00 | 0.46 | 95 | 1003.0 |
| 20260507145156 | 65 | 135 | 0.0 | 0.0 | 0.06 | 0.00 | 0.45 | 95 | 1003.0 |
| 20260507144657 | 65 | 135 | 0.0 | 0.0 | 0.06 | 0.00 | 0.45 | 95 | 1003.0 |
| 20260507144156 | 65 | 135 | 0.0 | 0.0 | 0.05 | 0.00 | 0.44 | 95 | 1003.0 |
| 20260507143658 | 64 | 135 | 0.0 | 0.0 | 0.05 | 0.00 | 0.44 | 95 | 1003.0 |
| 20260507143157 | 65 | 135 | 0.0 | 0.0 | 0.04 | 0.00 | 0.43 | 95 | 1003.0 |
| 20260507142657 | 65 | 135 | 0.0 | 0.0 | 0.02 | 0.00 | 0.41 | 95 | 1003.0 |
| 20260507142155 | 65 | 135 | 0.0 | 0.0 | 0.02 | 0.00 | 0.41 | 95 | 1003.0 |
| 20260507141657 | 65 | 135 | 0.0 | 0.0 | 0.01 | 0.00 | 0.40 | 95 | 1003.0 |
| 20260507141154 | 64 | 135 | 0.0 | 0.0 | 0.01 | 0.00 | 0.40 | 95 | 1003.0 |
| 20260507140657 | 64 | 113 | 0.0 | 0.0 | 0.00 | 0.00 | 0.39 | 95 | 1003.0 |
| 20260507140156 | 64 | 113 | 0.0 | 0.0 | 0.00 | 0.00 | 0.39 | 95 | 1003.0 |
| 20260507135656 | 64 | 113 | 0.0 | 0.0 | 0.09 | 0.00 | 0.39 | 95 | 1002.0 |
| 20260507135156 | 64 | 113 | 1.0 | 2.0 | 0.08 | 0.00 | 0.38 | 95 | 1002.0 |
| 20260507134657 | 64 | 135 | 0.0 | 0.0 | 0.08 | 0.00 | 0.38 | 95 | 1003.0 |
| 20260507134156 | 64 | 135 | 0.0 | 0.0 | 0.07 | 0.00 | 0.37 | 95 | 1003.0 |
| 20260507133657 | 64 | 113 | 0.0 | 0.0 | 0.07 | 0.00 | 0.37 | 95 | 1003.0 |
| 20260507133158 | 64 | 135 | 0.0 | 0.0 | 0.07 | 0.00 | 0.37 | 95 | 1003.0 |
| 20260507132657 | 64 | 135 | 0.0 | 0.0 | 0.06 | 0.00 | 0.35 | 95 | 1003.0 |
| 20260507132157 | 64 | 135 | 0.0 | 0.0 | 0.06 | 0.00 | 0.35 | 95 | 1004.0 |
| 20260507131656 | 64 | 135 | 0.0 | 0.0 | 0.05 | 0.00 | 0.34 | 95 | 1004.0 |
| 20260507131155 | 65 | 135 | 0.0 | 0.0 | 0.04 | 0.00 | 0.33 | 95 | 1004.0 |
| 20260507130656 | 64 | 135 | 0.0 | 0.0 | 0.02 | 0.00 | 0.32 | 95 | 1004.0 |
| 20260507130157 | 65 | 135 | 0.0 | 0.0 | 0.01 | 0.00 | 0.31 | 95 | 1004.0 |
| 20260507125656 | 64 | 135 | 0.0 | 0.0 | 0.15 | 0.00 | 0.28 | 95 | 1004.0 |
| 20260507125154 | 64 | 135 | 0.0 | 0.0 | 0.14 | 0.00 | 0.27 | 95 | 1004.0 |
| 20260507124656 | 64 | 135 | 0.0 | 0.0 | 0.13 | 0.00 | 0.26 | 95 | 1004.0 |
| 20260507124157 | 64 | 135 | 0.0 | 0.0 | 0.12 | 0.00 | 0.25 | 95 | 1004.0 |
| 20260507123654 | 64 | 135 | 0.0 | 0.0 | 0.11 | 0.00 | 0.24 | 95 | 1004.0 |
| 20260507123155 | 64 | 135 | 0.0 | 0.0 | 0.11 | 0.00 | 0.24 | 95 | 1004.0 |
| 20260507122654 | 64 | 135 | 0.0 | 0.0 | 0.09 | 0.00 | 0.22 | 95 | 1004.0 |
| 20260507122157 | 64 | 135 | 0.0 | 0.0 | 0.05 | 0.00 | 0.18 | 95 | 1004.0 |
| 20260507121656 | 64 | 135 | 0.0 | 0.0 | 0.04 | 0.00 | 0.17 | 95 | 1004.0 |
| 20260507121155 | 64 | 135 | 0.0 | 0.0 | 0.04 | 0.00 | 0.17 | 95 | 1004.0 |
| 20260507120657 | 64 | 135 | 0.0 | 0.0 | 0.01 | 0.00 | 0.14 | 95 | 1004.0 |
| 20260507120157 | 64 | 135 | 0.0 | 0.0 | 0.01 | 0.00 | 0.14 | 95 | 1004.0 |
| 20260507115656 | 64 | 135 | 0.0 | 0.0 | 0.00 | 0.00 | 0.13 | 95 | 1004.0 |
| 20260507115156 | 64 | 135 | 0.0 | 0.0 | 0.00 | 0.00 | 0.13 | 95 | 1003.0 |
| 20260507114657 | 64 | 135 | 0.0 | 0.0 | 0.00 | 0.00 | 0.13 | 95 | 1003.0 |
| 20260507114157 | 64 | 135 | 0.0 | 0.0 | 0.00 | 0.00 | 0.13 | 95 | 1003.0 |
| 20260507113654 | 64 | 135 | 0.0 | 0.0 | 0.00 | 0.00 | 0.13 | 95 | 1004.0 |
| 20260507113156 | 64 | 135 | 0.0 | 0.0 | 0.00 | 0.00 | 0.13 | 95 | 1003.0 |
| 20260507112656 | 64 | 135 | 0.0 | 0.0 | 0.00 | 0.00 | 0.13 | 95 | 1003.0 |
| 20260507112157 | 64 | 135 | 0.0 | 0.0 | 0.00 | 0.00 | 0.13 | 95 | 1003.0 |
| 20260507111657 | 64 | 135 | 0.0 | 0.0 | 0.00 | 0.00 | 0.13 | 95 | 1003.0 |
| 20260507111156 | 64 | 135 | 0.0 | 0.0 | 0.00 | 0.00 | 0.13 | 95 | 1003.0 |
| 20260507110657 | 64 | 135 | 0.0 | 0.0 | 0.00 | 0.00 | 0.13 | 95 | 1004.0 |
| 20260507110154 | 64 | 135 | 0.0 | 0.0 | 0.00 | 0.00 | 0.13 | 95 | 1003.0 |
| 20260507105656 | 64 | 135 | 0.0 | 0.0 | 0.02 | 0.00 | 0.13 | 95 | 1004.0 |
| 20260507105156 | 64 | 135 | 0.0 | 0.0 | 0.02 | 0.00 | 0.13 | 95 | 1004.0 |
| 20260507104656 | 64 | 135 | 0.0 | 0.0 | 0.02 | 0.00 | 0.13 | 95 | 1003.0 |
| 20260507104156 | 64 | 135 | 0.0 | 0.0 | 0.02 | 0.00 | 0.13 | 95 | 1003.0 |
| 20260507103656 | 64 | 135 | 0.0 | 0.0 | 0.01 | 0.00 | 0.12 | 95 | 1003.0 |
| 20260507103156 | 64 | 135 | 0.0 | 0.0 | 0.01 | 0.00 | 0.12 | 95 | 1004.0 |
| 20260507102655 | 64 | 135 | 0.0 | 0.0 | 0.00 | 0.00 | 0.11 | 95 | 1003.0 |
| 20260507102155 | 64 | 135 | 0.0 | 0.0 | 0.00 | 0.00 | 0.11 | 95 | 1003.0 |
| 20260507101655 | 64 | 135 | 0.0 | 0.0 | 0.00 | 0.00 | 0.11 | 95 | 1003.0 |
| 20260507101154 | 64 | 135 | 0.0 | 0.0 | 0.00 | 0.00 | 0.11 | 95 | 1003.0 |
| 20260507100656 | 64 | 135 | 0.0 | 0.0 | 0.00 | 0.00 | 0.11 | 95 | 1003.0 |
| 20260507100154 | 64 | 135 | 0.0 | 0.0 | 0.00 | 0.00 | 0.11 | 95 | 1003.0 |
| 20260507095656 | 64 | 135 | 0.0 | 0.0 | 0.02 | 0.00 | 0.11 | 95 | 1003.0 |
| 20260507095156 | 64 | 135 | 0.0 | 0.0 | 0.02 | 0.00 | 0.11 | 95 | 1004.0 |
| 20260507094656 | 64 | 135 | 0.0 | 0.0 | 0.02 | 0.00 | 0.11 | 95 | 1004.0 |
| 20260507094155 | 64 | 135 | 0.0 | 0.0 | 0.02 | 0.00 | 0.11 | 95 | 1003.0 |
| 20260507093657 | 64 | 135 | 0.0 | 0.0 | 0.02 | 0.00 | 0.11 | 95 | 1003.0 |
| 20260507093155 | 63 | 135 | 0.0 | 0.0 | 0.01 | 0.00 | 0.09 | 95 | 1003.0 |
| 20260507092655 | 63 | 135 | 0.0 | 0.0 | 0.01 | 0.00 | 0.09 | 95 | 1004.0 |
| 20260507092155 | 64 | 135 | 0.0 | 0.0 | 0.00 | 0.00 | 0.08 | 95 | 1004.0 |
| 20260507091656 | 64 | 135 | 0.0 | 0.0 | 0.00 | 0.00 | 0.08 | 95 | 1004.0 |
| 20260507091155 | 64 | 135 | 0.0 | 0.0 | 0.00 | 0.00 | 0.08 | 95 | 1003.0 |
| 20260507090656 | 64 | 135 | 0.0 | 0.0 | 0.00 | 0.00 | 0.08 | 95 | 1003.0 |
| 20260507090155 | 64 | 135 | 0.0 | 0.0 | 0.00 | 0.00 | 0.08 | 95 | 1003.0 |
| 20260507085655 | 64 | 135 | 0.0 | 0.0 | 0.00 | 0.00 | 0.08 | 95 | 1003.0 |
| 20260507085155 | 64 | 135 | 0.0 | 0.0 | 0.00 | 0.00 | 0.08 | 95 | 1003.0 |
| 20260507084655 | 64 | 135 | 0.0 | 0.0 | 0.00 | 0.00 | 0.08 | 95 | 1003.0 |
| 20260507084155 | 64 | 135 | 0.0 | 0.0 | 0.00 | 0.00 | 0.08 | 95 | 1003.0 |
| 20260507083656 | 64 | 135 | 0.0 | 0.0 | 0.00 | 0.00 | 0.08 | 95 | 1003.0 |
| 20260507083154 | 64 | 135 | 0.0 | 0.0 | 0.00 | 0.00 | 0.08 | 95 | 1003.0 |
| 20260507082656 | 64 | 135 | 0.0 | 0.0 | 0.00 | 0.00 | 0.08 | 95 | 1003.0 |
| 20260507082157 | 64 | 135 | 0.0 | 0.0 | 0.00 | 0.00 | 0.08 | 95 | 1003.0 |
| 20260507081656 | 64 | 135 | 0.0 | 0.0 | 0.00 | 0.00 | 0.08 | 95 | 1003.0 |
| 20260507081156 | 64 | 135 | 0.0 | 0.0 | 0.00 | 0.00 | 0.08 | 95 | 1003.0 |
| 20260507080656 | 64 | 135 | 0.0 | 1.0 | 0.00 | 0.00 | 0.08 | 95 | 1004.0 |
| 20260507080155 | 64 | 135 | 0.0 | 0.0 | 0.00 | 0.00 | 0.08 | 95 | 1004.0 |
| 20260507075656 | 64 | 135 | 0.0 | 0.0 | 0.04 | 0.00 | 0.07 | 95 | 1004.0 |
| 20260507075156 | 64 | 135 | 0.0 | 0.0 | 0.02 | 0.00 | 0.06 | 95 | 1004.0 |
| 20260507074657 | 64 | 135 | 0.0 | 0.0 | 0.00 | 0.00 | 0.04 | 95 | 1004.0 |
| 20260507074156 | 64 | 135 | 0.0 | 0.0 | 0.00 | 0.00 | 0.04 | 95 | 1004.0 |
| 20260507073656 | 64 | 135 | 0.0 | 0.0 | 0.00 | 0.00 | 0.04 | 95 | 1004.0 |
| 20260507073156 | 64 | 135 | 0.0 | 0.0 | 0.00 | 0.00 | 0.04 | 95 | 1004.0 |
| 20260507072654 | 64 | 135 | 0.0 | 0.0 | 0.00 | 0.00 | 0.04 | 94 | 1004.0 |
| 20260507072155 | 64 | 135 | 1.0 | 1.0 | 0.00 | 0.00 | 0.04 | 94 | 1004.0 |
| 20260507071656 | 64 | 135 | 0.0 | 0.0 | 0.00 | 0.00 | 0.04 | 94 | 1004.0 |
| 20260507071156 | 64 | 135 | 0.0 | 0.0 | 0.00 | 0.00 | 0.04 | 94 | 1004.0 |
| 20260507070657 | 64 | 135 | 0.0 | 0.0 | 0.00 | 0.00 | 0.04 | 94 | 1004.0 |
| 20260507070157 | 64 | 135 | 0.0 | 0.0 | 0.00 | 0.00 | 0.04 | 94 | 1004.0 |
| 20260507065655 | 64 | 135 | 1.0 | 2.0 | 0.00 | 0.00 | 0.04 | 94 | 1004.0 |
| 20260507065156 | 64 | 135 | 1.0 | 2.0 | 0.00 | 0.00 | 0.04 | 94 | 1004.0 |
| 20260507064656 | 64 | 135 | 0.0 | 2.0 | 0.00 | 0.00 | 0.04 | 94 | 1004.0 |
| 20260507064157 | 64 | 135 | 0.0 | 1.0 | 0.00 | 0.00 | 0.04 | 94 | 1004.0 |
| 20260507063656 | 64 | 135 | 1.0 | 2.0 | 0.00 | 0.00 | 0.04 | 94 | 1004.0 |
| 20260507063156 | 64 | 135 | 2.0 | 2.0 | 0.00 | 0.00 | 0.04 | 94 | 1005.0 |
| 20260507062656 | 64 | 135 | 0.0 | 1.0 | 0.00 | 0.00 | 0.04 | 94 | 1004.0 |
| 20260507062157 | 64 | 135 | 0.0 | 0.0 | 0.00 | 0.00 | 0.04 | 94 | 1004.0 |
| 20260507061654 | 64 | 135 | 0.0 | 1.0 | 0.00 | 0.00 | 0.04 | 94 | 1005.0 |
| 20260507061155 | 64 | 135 | 0.0 | 1.0 | 0.00 | 0.00 | 0.04 | 94 | 1005.0 |
| 20260507060655 | 64 | 135 | 0.0 | 1.0 | 0.00 | 0.00 | 0.04 | 94 | 1005.0 |
| 20260507060154 | 64 | 135 | 0.0 | 0.0 | 0.00 | 0.00 | 0.04 | 94 | 1006.0 |
| 20260507055656 | 64 | 135 | 0.0 | 0.0 | 0.02 | 0.00 | 0.04 | 94 | 1006.0 |
| 20260507055157 | 64 | 135 | 0.0 | 0.0 | 0.02 | 0.00 | 0.04 | 94 | 1006.0 |
| 20260507054655 | 64 | 135 | 0.0 | 1.0 | 0.01 | 0.00 | 0.02 | 94 | 1006.0 |
| 20260507054154 | 64 | 135 | 2.0 | 2.0 | 0.01 | 0.00 | 0.02 | 94 | 1005.0 |
| 20260507053656 | 64 | 135 | 0.0 | 1.0 | 0.00 | 0.00 | 0.01 | 94 | 1005.0 |
| 20260507053154 | 64 | 135 | 1.0 | 2.0 | 0.00 | 0.00 | 0.01 | 94 | 1006.0 |
| 20260507052656 | 64 | 135 | 2.0 | 2.0 | 0.00 | 0.00 | 0.01 | 94 | 1006.0 |
| 20260507052157 | 64 | 135 | 0.0 | 1.0 | 0.00 | 0.00 | 0.01 | 94 | 1005.0 |
| 20260507051656 | 64 | 135 | 0.0 | 0.0 | 0.00 | 0.00 | 0.01 | 94 | 1005.0 |
| 20260507051155 | 64 | 135 | 1.0 | 1.0 | 0.00 | 0.00 | 0.01 | 94 | 1005.0 |
| 20260507050657 | 64 | 135 | 1.0 | 2.0 | 0.00 | 0.00 | 0.01 | 94 | 1006.0 |
| 20260507050156 | 64 | 135 | 0.0 | 0.0 | 0.00 | 0.00 | 0.01 | 94 | 1005.0 |
| 20260507045657 | 64 | 135 | 0.0 | 0.0 | 0.01 | 0.00 | 0.01 | 94 | 1005.0 |
| 20260507045155 | 64 | 135 | 0.0 | 1.0 | 0.01 | 0.00 | 0.01 | 94 | 1006.0 |
| 20260507044654 | 64 | 135 | 0.0 | 0.0 | 0.01 | 0.00 | 0.01 | 93 | 1005.0 |
| 20260507044154 | 64 | 135 | 0.0 | 0.0 | 0.01 | 0.00 | 0.01 | 93 | 1005.0 |
| 20260507043655 | 64 | 135 | 1.0 | 2.0 | 0.01 | 0.00 | 0.01 | 93 | 1006.0 |
| 20260507043155 | 64 | 135 | 0.0 | 0.0 | 0.01 | 0.00 | 0.01 | 93 | 1005.0 |
| 20260507042655 | 64 | 135 | 1.0 | 2.0 | 0.01 | 0.00 | 0.01 | 93 | 1005.0 |
| 20260507042155 | 64 | 135 | 0.0 | 1.0 | 0.00 | 0.00 | 0.00 | 93 | 1004.0 |
| 20260507041656 | 64 | 113 | 1.0 | 2.0 | 0.00 | 0.00 | 0.00 | 93 | 1005.0 |